Time,TemperatureF,DewpointF,PressureIn,WindDirection,WindDirectionDegrees,WindSpeedMPH,WindSpeedGustMPH,Humidity,HourlyPrecipIn,Conditions,Clouds,dailyrainin,SoftwareType,DateUTC
2013-01-08 00:03:00,21.2,9.9,30.39,North,-999,0.0,0.0,61,0.00,,,-99.99,FreeWX-Wi 1.02,2013-01-08 05:03:00,
2013-01-08 00:08:00,21.0,9.3,30.39,North,-999,0.0,0.0,60,0.00,,,-99.99,FreeWX-Wi 1.02,2013-01-08 05:08:00,
2013-01-08 00:13:00,21.2,9.9,30.39,North,-999,0.0,0.0,61,0.00,,,-99.99,FreeWX-Wi 1.02,2013-01-08 05:13:00,
2013-01-08 00:18:00,21.2,9.9,30.39,North,-999,0.0,0.0,61,0.00,,,-99.99,FreeWX-Wi 1.02,2013-01-08 05:18:00,
2013-01-08 00:23:00,21.0,9.7,30.39,North,-999,0.0,0.0,61,0.00,,,-99.99,FreeWX-Wi 1.02,2013-01-08 05:23:00,
2013-01-08 00:28:00,20.8,9.5,30.39,North,-999,0.0,0.0,61,0.00,,,-99.99,FreeWX-Wi 1.02,2013-01-08 05:28:00,
2013-01-08 00:33:00,20.5,9.1,30.39,North,-999,0.0,0.0,61,0.00,,,-99.99,FreeWX-Wi 1.02,2013-01-08 05:33:00,
2013-01-08 00:38:00,20.5,9.5,30.39,North,-999,0.0,0.0,62,0.00,,,-99.99,FreeWX-Wi 1.02,2013-01-08 05:38:00,
2013-01-08 00:43:00,20.7,9.7,30.39,North,-999,0.0,0.0,62,0.00,,,-99.99,FreeWX-Wi 1.02,2013-01-08 05:43:00,
2013-01-08 00:48:00,21.0,10.4,30.39,North,-999,0.0,0.0,63,0.00,,,-99.99,FreeWX-Wi 1.02,2013-01-08 05:48:00,
2013-01-08 00:53:00,21.2,10.9,30.39,North,-999,0.0,0.0,64,0.00,,,-99.99,FreeWX-Wi 1.02,2013-01-08 05:53:00,
2013-01-08 00:58:00,21.2,10.6,30.39,North,-999,0.0,0.0,63,0.00,,,-99.99,FreeWX-Wi 1.02,2013-01-08 05:58:00,
2013-01-08 01:03:00,21.0,10.4,30.39,North,-999,0.0,0.0,63,0.00,,,-99.99,FreeWX-Wi 1.02,2013-01-08 06:03:00,
2013-01-08 01:08:00,21.2,10.9,30.39,North,-999,0.0,0.0,64,0.00,,,-99.99,FreeWX-Wi 1.02,2013-01-08 06:08:00,
2013-01-08 01:14:00,21.4,11.1,30.39,North,-999,0.0,0.0,64,0.00,,,-99.99,FreeWX-Wi 1.02,2013-01-08 06:14:00,
2013-01-08 01:19:00,21.4,11.1,30.36,North,-999,0.0,0.0,64,0.00,,,-99.99,FreeWX-Wi 1.02,2013-01-08 06:19:00,
2013-01-08 01:24:00,21.6,11.3,30.36,North,-999,0.0,0.0,64,0.00,,,-99.99,FreeWX-Wi 1.02,2013-01-08 06:24:00,
2013-01-08 01:29:00,21.4,11.1,30.36,North,-999,0.0,0.0,64,0.00,,,-99.99,FreeWX-Wi 1.02,2013-01-08 06:29:00,
2013-01-08 01:34:00,21.4,11.5,30.39,North,-999,0.0,0.0,65,0.00,,,-99.99,FreeWX-Wi 1.02,2013-01-08 06:34:00,
2013-01-08 01:39:00,21.2,11.3,30.39,North,-999,0.0,0.0,65,0.00,,,-99.99,FreeWX-Wi 1.02,2013-01-08 06:39:00,
2013-01-08 01:44:00,21.0,11.1,30.39,North,-999,0.0,0.0,65,0.00,,,-99.99,FreeWX-Wi 1.02,2013-01-08 06:44:00,
2013-01-08 01:49:00,21.0,11.1,30.39,North,-999,0.0,0.0,65,0.00,,,-99.99,FreeWX-Wi 1.02,2013-01-08 06:49:00,
2013-01-08 01:54:00,21.0,11.1,30.39,North,-999,0.0,0.0,65,0.00,,,-99.99,FreeWX-Wi 1.02,2013-01-08 06:54:00,
2013-01-08 01:59:00,21.2,11.7,30.39,North,-999,0.0,0.0,66,0.00,,,-99.99,FreeWX-Wi 1.02,2013-01-08 06:59:00,
2013-01-08 02:04:00,21.4,12.2,30.39,North,-999,0.0,0.0,67,0.00,,,-99.99,FreeWX-Wi 1.02,2013-01-08 07:04:00,
2013-01-08 02:09:00,21.6,12.7,30.39,North,-999,0.0,0.0,68,0.00,,,-99.99,FreeWX-Wi 1.02,2013-01-08 07:09:00,
2013-01-08 02:14:00,21.2,12.4,30.39,North,-999,0.0,0.0,68,0.00,,,-99.99,FreeWX-Wi 1.02,2013-01-08 07:14:00,
2013-01-08 02:19:00,21.2,12.4,30.39,North,-999,0.0,0.0,68,0.00,,,-99.99,FreeWX-Wi 1.02,2013-01-08 07:19:00,
2013-01-08 02:24:00,21.2,12.4,30.39,North,-999,0.0,0.0,68,0.00,,,-99.99,FreeWX-Wi 1.02,2013-01-08 07:24:00,
2013-01-08 02:29:00,21.2,12.4,30.39,North,-999,0.0,0.0,68,0.00,,,-99.99,FreeWX-Wi 1.02,2013-01-08 07:29:00,
2013-01-08 02:34:00,21.2,12.6,30.36,North,-999,0.0,0.0,69,0.00,,,-99.99,FreeWX-Wi 1.02,2013-01-08 07:34:00,
2013-01-08 02:39:00,21.4,12.6,30.36,North,-999,0.0,0.0,68,0.00,,,-99.99,FreeWX-Wi 1.02,2013-01-08 07:39:00,
2013-01-08 02:44:00,21.6,12.9,30.36,North,-999,0.0,0.0,69,0.00,,,-99.99,FreeWX-Wi 1.02,2013-01-08 07:44:00,
2013-01-08 02:49:00,21.9,14.0,30.36,North,-999,0.0,0.0,71,0.00,,,-99.99,FreeWX-Wi 1.02,2013-01-08 07:49:00,
2013-01-08 02:54:00,22.8,14.9,30.36,North,-999,0.0,0.0,71,0.00,,,-99.99,FreeWX-Wi 1.02,2013-01-08 07:54:00,
2013-01-08 02:59:00,22.5,14.2,30.36,North,-999,0.0,0.0,70,0.00,,,-99.99,FreeWX-Wi 1.02,2013-01-08 07:59:00,
2013-01-08 03:04:00,22.1,13.8,30.36,North,-999,0.0,0.0,70,0.00,,,-99.99,FreeWX-Wi 1.02,2013-01-08 08:04:00,
2013-01-08 03:09:00,22.3,14.4,30.36,North,-999,0.0,0.0,71,0.00,,,-99.99,FreeWX-Wi 1.02,2013-01-08 08:09:00,
2013-01-08 03:14:00,22.3,14.4,30.36,North,-999,0.0,0.0,71,0.00,,,-99.99,FreeWX-Wi 1.02,2013-01-08 08:14:00,
2013-01-08 03:19:00,22.1,14.2,30.36,North,-999,0.0,0.0,71,0.00,,,-99.99,FreeWX-Wi 1.02,2013-01-08 08:19:00,
2013-01-08 03:24:00,22.3,14.7,30.36,North,-999,0.0,0.0,72,0.00,,,-99.99,FreeWX-Wi 1.02,2013-01-08 08:24:00,
2013-01-08 03:29:00,22.1,14.5,30.36,North,-999,0.0,0.0,72,0.00,,,-99.99,FreeWX-Wi 1.02,2013-01-08 08:29:00,
2013-01-08 03:34:00,22.6,15.3,30.36,North,-999,0.0,0.0,73,0.00,,,-99.99,FreeWX-Wi 1.02,2013-01-08 08:34:00,
2013-01-08 03:39:00,23.0,15.6,30.36,North,-999,0.0,0.0,73,0.00,,,-99.99,FreeWX-Wi 1.02,2013-01-08 08:39:00,
2013-01-08 03:44:00,23.4,16.3,30.36,North,-999,0.0,0.0,74,0.00,,,-99.99,FreeWX-Wi 1.02,2013-01-08 08:44:00,
2013-01-08 03:49:00,23.7,16.7,30.36,North,-999,0.0,0.0,74,0.00,,,-99.99,FreeWX-Wi 1.02,2013-01-08 08:49:00,
2013-01-08 03:54:00,23.5,16.2,30.36,North,-999,0.0,0.0,73,0.00,,,-99.99,FreeWX-Wi 1.02,2013-01-08 08:54:00,
2013-01-08 03:59:00,23.7,16.7,30.36,North,-999,0.0,0.0,74,0.00,,,-99.99,FreeWX-Wi 1.02,2013-01-08 08:59:00,
2013-01-08 04:04:00,23.9,16.9,30.36,North,-999,0.0,0.0,74,0.00,,,-99.99,FreeWX-Wi 1.02,2013-01-08 09:04:00,
2013-01-08 04:09:00,23.9,17.2,30.36,North,-999,0.0,0.0,75,0.00,,,-99.99,FreeWX-Wi 1.02,2013-01-08 09:09:00,
2013-01-08 04:14:00,24.6,18.5,30.36,North,-999,0.0,0.0,77,0.00,,,-99.99,FreeWX-Wi 1.02,2013-01-08 09:14:00,
2013-01-08 04:19:00,25.0,18.9,30.36,North,-999,0.0,0.0,77,0.00,,,-99.99,FreeWX-Wi 1.02,2013-01-08 09:19:00,
2013-01-08 04:24:00,25.0,18.5,30.36,North,-999,0.0,0.0,76,0.00,,,-99.99,FreeWX-Wi 1.02,2013-01-08 09:24:00,
2013-01-08 04:29:00,25.2,18.7,30.36,North,-999,0.0,0.0,76,0.00,,,-99.99,FreeWX-Wi 1.02,2013-01-08 09:29:00,
2013-01-08 04:34:00,25.0,18.1,30.36,North,-999,0.0,0.0,75,0.00,,,-99.99,FreeWX-Wi 1.02,2013-01-08 09:34:00,
2013-01-08 04:39:00,24.8,18.3,30.36,North,-999,0.0,4.0,76,0.00,,,-99.99,FreeWX-Wi 1.02,2013-01-08 09:39:00,
2013-01-08 04:44:00,24.6,18.1,30.36,North,-999,0.0,0.0,76,0.00,,,-99.99,FreeWX-Wi 1.02,2013-01-08 09:44:00,
2013-01-08 04:49:00,24.8,18.7,30.36,North,-999,0.0,0.0,77,0.00,,,-99.99,FreeWX-Wi 1.02,2013-01-08 09:49:00,
2013-01-08 04:54:00,24.6,18.5,30.36,North,-999,0.0,0.0,77,0.00,,,-99.99,FreeWX-Wi 1.02,2013-01-08 09:54:00,
2013-01-08 04:59:00,24.4,18.3,30.36,North,-999,0.0,0.0,77,0.00,,,-99.99,FreeWX-Wi 1.02,2013-01-08 09:59:00,
2013-01-08 05:04:00,24.6,18.7,30.36,North,-999,0.0,0.0,78,0.00,,,-99.99,FreeWX-Wi 1.02,2013-01-08 10:04:00,
2013-01-08 05:09:00,24.6,19.0,30.36,North,-999,0.0,0.0,79,0.00,,,-99.99,FreeWX-Wi 1.02,2013-01-08 10:09:00,
2013-01-08 05:14:00,25.0,19.8,30.36,North,-999,0.0,0.0,80,0.00,,,-99.99,FreeWX-Wi 1.02,2013-01-08 10:14:00,
2013-01-08 05:19:00,25.3,20.1,30.36,North,-999,0.0,0.0,80,0.00,,,-99.99,FreeWX-Wi 1.02,2013-01-08 10:19:00,
2013-01-08 05:24:00,25.3,20.1,30.36,North,-999,0.0,0.0,80,0.00,,,-99.99,FreeWX-Wi 1.02,2013-01-08 10:24:00,
2013-01-08 05:29:00,24.8,19.6,30.36,North,-999,0.0,0.0,80,0.00,,,-99.99,FreeWX-Wi 1.02,2013-01-08 10:29:00,
2013-01-08 05:34:00,24.8,19.6,30.36,North,-999,0.0,0.0,80,0.00,,,-99.99,FreeWX-Wi 1.02,2013-01-08 10:34:00,
2013-01-08 05:39:00,24.4,19.4,30.36,North,-999,0.0,0.0,81,0.00,,,-99.99,FreeWX-Wi 1.02,2013-01-08 10:39:00,
2013-01-08 05:44:00,25.0,20.3,30.36,North,-999,0.0,0.0,82,0.00,,,-99.99,FreeWX-Wi 1.02,2013-01-08 10:44:00,
2013-01-08 05:49:00,25.0,20.3,30.36,North,-999,0.0,0.0,82,0.00,,,-99.99,FreeWX-Wi 1.02,2013-01-08 10:49:00,
2013-01-08 05:54:00,24.6,19.9,30.36,North,-999,0.0,0.0,82,0.00,,,-99.99,FreeWX-Wi 1.02,2013-01-08 10:54:00,
2013-01-08 05:59:00,24.4,19.8,30.36,North,-999,0.0,0.0,82,0.00,,,-99.99,FreeWX-Wi 1.02,2013-01-08 10:59:00,
2013-01-08 06:04:00,24.4,19.8,30.36,North,-999,0.0,0.0,82,0.00,,,-99.99,FreeWX-Wi 1.02,2013-01-08 11:04:00,
2013-01-08 06:09:00,24.3,19.6,30.36,North,-999,0.0,0.0,82,0.00,,,-99.99,FreeWX-Wi 1.02,2013-01-08 11:09:00,
2013-01-08 06:14:00,24.3,19.6,30.36,North,-999,0.0,0.0,82,0.00,,,-99.99,FreeWX-Wi 1.02,2013-01-08 11:14:00,
2013-01-08 06:19:00,24.1,19.8,30.36,North,-999,0.0,0.0,83,0.00,,,-99.99,FreeWX-Wi 1.02,2013-01-08 11:19:00,
2013-01-08 06:24:00,24.1,19.8,30.36,North,-999,0.0,0.0,83,0.00,,,-99.99,FreeWX-Wi 1.02,2013-01-08 11:24:00,
2013-01-08 06:29:00,24.4,20.7,30.36,North,-999,0.0,0.0,85,0.00,,,-99.99,FreeWX-Wi 1.02,2013-01-08 11:29:00,
2013-01-08 06:34:00,24.8,21.2,30.36,North,-999,0.0,0.0,86,0.00,,,-99.99,FreeWX-Wi 1.02,2013-01-08 11:34:00,
2013-01-08 06:39:00,25.2,21.6,30.36,North,-999,0.0,0.0,86,0.00,,,-99.99,FreeWX-Wi 1.02,2013-01-08 11:39:00,
2013-01-08 06:44:00,25.5,22.3,30.36,North,-999,0.0,0.0,87,0.00,,,-99.99,FreeWX-Wi 1.02,2013-01-08 11:44:00,
2013-01-08 06:49:00,25.5,21.9,30.39,North,-999,0.0,2.2,86,0.00,,,-99.99,FreeWX-Wi 1.02,2013-01-08 11:49:00,
2013-01-08 06:54:00,25.3,21.6,30.39,North,-999,0.0,0.0,85,0.00,,,-99.99,FreeWX-Wi 1.02,2013-01-08 11:54:00,
2013-01-08 06:59:00,25.5,21.7,30.39,North,-999,0.0,0.0,85,0.00,,,-99.99,FreeWX-Wi 1.02,2013-01-08 11:59:00,
2013-01-08 07:04:00,25.5,21.7,30.39,North,-999,0.0,0.0,85,0.00,,,-99.99,FreeWX-Wi 1.02,2013-01-08 12:04:00,
2013-01-08 07:09:00,25.5,21.7,30.39,North,-999,0.0,0.0,85,0.00,,,-99.99,FreeWX-Wi 1.02,2013-01-08 12:09:00,
2013-01-08 07:14:00,25.7,22.1,30.39,North,-999,0.0,0.0,86,0.00,,,-99.99,FreeWX-Wi 1.02,2013-01-08 12:14:00,
2013-01-08 07:19:00,26.1,22.8,30.39,North,-999,0.0,0.0,87,0.00,,,-99.99,FreeWX-Wi 1.02,2013-01-08 12:19:00,
2013-01-08 07:24:00,26.4,23.4,30.39,North,-999,0.0,0.0,88,0.00,,,-99.99,FreeWX-Wi 1.02,2013-01-08 12:24:00,
2013-01-08 07:29:00,26.6,23.5,30.39,North,-999,0.0,0.0,88,0.00,,,-99.99,FreeWX-Wi 1.02,2013-01-08 12:29:00,
2013-01-08 07:34:00,26.8,23.4,30.39,North,-999,0.0,0.0,87,0.00,,,-99.99,FreeWX-Wi 1.02,2013-01-08 12:34:00,
2013-01-08 07:39:00,27.0,23.5,30.39,North,-999,0.0,0.0,87,0.00,,,-99.99,FreeWX-Wi 1.02,2013-01-08 12:39:00,
2013-01-08 07:44:00,27.1,23.5,30.39,North,-999,0.0,0.0,86,0.00,,,-99.99,FreeWX-Wi 1.02,2013-01-08 12:44:00,
2013-01-08 07:49:00,27.5,24.1,30.41,North,-999,0.0,0.0,87,0.00,,,-99.99,FreeWX-Wi 1.02,2013-01-08 12:49:00,
2013-01-08 07:54:00,27.9,24.8,30.41,North,-999,0.0,0.0,88,0.00,,,-99.99,FreeWX-Wi 1.02,2013-01-08 12:54:00,
2013-01-08 07:59:00,28.6,25.5,30.41,North,-999,0.0,0.0,88,0.00,,,-99.99,FreeWX-Wi 1.02,2013-01-08 12:59:00,
2013-01-08 08:04:00,29.3,25.9,30.41,North,-999,0.0,0.0,87,0.00,,,-99.99,FreeWX-Wi 1.02,2013-01-08 13:04:00,
2013-01-08 08:09:00,29.5,25.9,30.41,North,-999,0.0,0.0,86,0.00,,,-99.99,FreeWX-Wi 1.02,2013-01-08 13:09:00,
2013-01-08 08:14:00,29.8,26.2,30.41,North,-999,0.0,0.0,86,0.00,,,-99.99,FreeWX-Wi 1.02,2013-01-08 13:14:00,
2013-01-08 08:19:00,30.4,26.4,30.41,North,-999,0.0,0.0,85,0.00,,,-99.99,FreeWX-Wi 1.02,2013-01-08 13:19:00,
2013-01-08 08:24:00,31.3,27.3,30.41,North,-999,0.0,0.0,85,0.00,,,-99.99,FreeWX-Wi 1.02,2013-01-08 13:24:00,
2013-01-08 08:29:00,32.0,27.7,30.41,North,-999,0.0,0.0,84,0.00,,,-99.99,FreeWX-Wi 1.02,2013-01-08 13:29:00,
2013-01-08 08:34:00,32.2,27.3,30.41,North,-999,0.0,0.0,82,0.00,,,-99.99,FreeWX-Wi 1.02,2013-01-08 13:34:00,
2013-01-08 08:39:00,32.4,27.1,30.41,North,-999,0.0,0.0,81,0.00,,,-99.99,FreeWX-Wi 1.02,2013-01-08 13:39:00,
2013-01-08 08:44:00,33.4,27.9,30.41,North,-999,0.0,0.0,80,0.00,,,-99.99,FreeWX-Wi 1.02,2013-01-08 13:44:00,
2013-01-08 08:49:00,34.0,27.9,30.41,North,-999,0.0,0.0,78,0.00,,,-99.99,FreeWX-Wi 1.02,2013-01-08 13:49:00,
2013-01-08 08:54:00,34.2,27.3,30.41,North,-999,0.0,0.0,76,0.00,,,-99.99,FreeWX-Wi 1.02,2013-01-08 13:54:00,
2013-01-08 08:59:00,34.2,27.1,30.41,North,-999,0.0,0.0,75,0.00,,,-99.99,FreeWX-Wi 1.02,2013-01-08 13:59:00,
2013-01-08 09:04:00,34.3,25.9,30.41,North,-999,0.0,0.0,71,0.00,,,-99.99,FreeWX-Wi 1.02,2013-01-08 14:04:00,
2013-01-08 09:09:00,35.8,25.2,30.41,North,-999,0.0,2.7,65,0.00,,,-99.99,FreeWX-Wi 1.02,2013-01-08 14:09:00,
2013-01-08 09:14:00,36.9,22.3,30.41,North,-999,0.0,0.0,55,0.00,,,-99.99,FreeWX-Wi 1.02,2013-01-08 14:14:00,
2013-01-08 09:19:00,37.9,21.9,30.41,North,-999,0.0,3.1,52,0.00,,,-99.99,FreeWX-Wi 1.02,2013-01-08 14:19:00,
2013-01-08 09:24:00,37.8,19.9,30.41,North,-999,0.0,0.0,48,0.00,,,-99.99,FreeWX-Wi 1.02,2013-01-08 14:24:00,
2013-01-08 09:29:00,37.8,19.4,30.41,North,-999,0.0,2.7,47,0.00,,,-99.99,FreeWX-Wi 1.02,2013-01-08 14:29:00,
2013-01-08 09:34:00,39.7,19.0,30.41,North,-999,0.0,5.4,43,0.00,,,-99.99,FreeWX-Wi 1.02,2013-01-08 14:34:00,
2013-01-08 09:39:00,39.2,17.4,30.41,North,-999,0.0,4.0,41,0.00,,,-99.99,FreeWX-Wi 1.02,2013-01-08 14:39:00,
2013-01-08 09:44:00,38.8,18.9,30.41,North,-999,0.0,4.0,44,0.00,,,-99.99,FreeWX-Wi 1.02,2013-01-08 14:44:00,
2013-01-08 09:49:00,39.0,19.0,30.41,NNW,331,1.0,3.1,44,0.00,,,-99.99,FreeWX-Wi 1.02,2013-01-08 14:49:00,
2013-01-08 09:54:00,39.4,18.7,30.41,WNW,298,1.0,3.6,43,0.00,,,-99.99,FreeWX-Wi 1.02,2013-01-08 14:54:00,
2013-01-08 09:59:00,39.4,18.7,30.41,WNW,298,1.0,2.7,43,0.00,,,-99.99,FreeWX-Wi 1.02,2013-01-08 14:59:00,
2013-01-08 10:04:00,39.7,18.0,30.41,WNW,288,1.0,3.6,41,0.00,,,-99.99,FreeWX-Wi 1.02,2013-01-08 15:04:00,
2013-01-08 10:09:00,41.2,16.3,30.41,West,267,1.0,4.0,36,0.00,,,-99.99,FreeWX-Wi 1.02,2013-01-08 15:09:00,
2013-01-08 10:14:00,43.3,16.2,30.41,North,-999,0.0,2.2,33,0.00,,,-99.99,FreeWX-Wi 1.02,2013-01-08 15:14:00,
2013-01-08 10:19:00,44.2,10.8,30.41,North,-999,0.0,3.6,25,0.00,,,-99.99,FreeWX-Wi 1.02,2013-01-08 15:19:00,
2013-01-08 10:24:00,43.2,9.7,30.41,NNW,340,1.0,4.9,25,0.00,,,-99.99,FreeWX-Wi 1.02,2013-01-08 15:24:00,
2013-01-08 10:29:00,42.8,12.0,30.41,SSW,195,1.0,4.9,28,0.00,,,-99.99,FreeWX-Wi 1.02,2013-01-08 15:29:00,
2013-01-08 10:34:00,44.4,10.8,30.41,West,269,1.0,4.0,25,0.00,,,-99.99,FreeWX-Wi 1.02,2013-01-08 15:34:00,
2013-01-08 10:39:00,45.3,11.7,30.41,West,261,1.0,6.3,25,0.00,,,-99.99,FreeWX-Wi 1.02,2013-01-08 15:39:00,
2013-01-08 10:44:00,43.9,10.4,30.41,WSW,242,2.0,6.3,25,0.00,,,-99.99,FreeWX-Wi 1.02,2013-01-08 15:44:00,
2013-01-08 10:49:00,43.0,9.7,30.39,West,266,2.0,2.2,25,0.00,,,-99.99,FreeWX-Wi 1.02,2013-01-08 15:49:00,
2013-01-08 10:54:00,44.4,10.8,30.39,West,274,1.0,4.0,25,0.00,,,-99.99,FreeWX-Wi 1.02,2013-01-08 15:54:00,
2013-01-08 10:59:00,45.3,11.7,30.39,West,279,1.0,5.4,25,0.00,,,-99.99,FreeWX-Wi 1.02,2013-01-08 15:59:00,
2013-01-08 11:04:00,46.4,11.7,30.39,West,270,1.0,2.7,24,0.00,,,-99.99,FreeWX-Wi 1.02,2013-01-08 16:04:00,
2013-01-08 11:09:00,46.2,12.4,30.39,North,-999,0.0,2.7,25,0.00,,,-99.99,FreeWX-Wi 1.02,2013-01-08 16:09:00,
2013-01-08 11:14:00,45.7,10.9,30.39,North,-999,0.0,4.0,24,0.00,,,-99.99,FreeWX-Wi 1.02,2013-01-08 16:14:00,
2013-01-08 11:19:00,47.8,11.8,30.39,WNW,285,1.0,4.9,23,0.00,,,-99.99,FreeWX-Wi 1.02,2013-01-08 16:19:00,
2013-01-08 11:24:00,47.3,11.5,30.39,West,277,1.0,4.0,23,0.00,,,-99.99,FreeWX-Wi 1.02,2013-01-08 16:24:00,
2013-01-08 11:29:00,47.7,11.7,30.39,North,-999,0.0,0.0,23,0.00,,,-99.99,FreeWX-Wi 1.02,2013-01-08 16:29:00,
2013-01-08 11:34:00,46.9,11.1,30.39,ESE,105,1.0,5.8,23,0.00,,,-99.99,FreeWX-Wi 1.02,2013-01-08 16:34:00,
2013-01-08 11:39:00,45.5,10.8,30.39,SE,127,1.0,3.1,24,0.00,,,-99.99,FreeWX-Wi 1.02,2013-01-08 16:39:00,
2013-01-08 11:45:00,45.9,11.1,30.39,SE,125,1.0,5.8,24,0.00,,,-99.99,FreeWX-Wi 1.02,2013-01-08 16:45:00,
2013-01-08 11:50:00,44.2,9.7,30.36,ESE,119,1.0,4.9,24,0.00,,,-99.99,FreeWX-Wi 1.02,2013-01-08 16:50:00,
2013-01-08 11:55:00,45.7,10.9,30.36,NE,55,1.0,2.7,24,0.00,,,-99.99,FreeWX-Wi 1.02,2013-01-08 16:55:00,
2013-01-08 12:00:00,47.3,11.5,30.36,NNW,340,1.0,6.3,23,0.00,,,-99.99,FreeWX-Wi 1.02,2013-01-08 17:00:00,
2013-01-08 12:05:00,48.7,12.6,30.36,North,351,1.0,4.0,23,0.00,,,-99.99,FreeWX-Wi 1.02,2013-01-08 17:05:00,
2013-01-08 12:10:00,48.2,12.2,30.36,NNW,346,1.0,4.0,23,0.00,,,-99.99,FreeWX-Wi 1.02,2013-01-08 17:10:00,
2013-01-08 12:15:00,46.4,10.6,30.36,North,11,1.0,4.0,23,0.00,,,-99.99,FreeWX-Wi 1.02,2013-01-08 17:15:00,
2013-01-08 12:20:00,44.8,10.2,30.36,South,189,1.0,3.6,24,0.00,,,-99.99,FreeWX-Wi 1.02,2013-01-08 17:20:00,
2013-01-08 12:25:00,44.8,10.2,30.36,SW,226,1.0,4.0,24,0.00,,,-99.99,FreeWX-Wi 1.02,2013-01-08 17:25:00,
2013-01-08 12:30:00,46.4,10.6,30.36,South,180,1.0,3.6,23,0.00,,,-99.99,FreeWX-Wi 1.02,2013-01-08 17:30:00,
2013-01-08 12:35:00,46.9,11.1,30.33,SSW,213,1.0,4.0,23,0.00,,,-99.99,FreeWX-Wi 1.02,2013-01-08 17:35:00,
2013-01-08 12:40:00,46.2,11.5,30.33,West,262,1.0,4.9,24,0.00,,,-99.99,FreeWX-Wi 1.02,2013-01-08 17:40:00,
2013-01-08 12:45:00,45.3,10.8,30.33,West,274,2.0,5.4,24,0.00,,,-99.99,FreeWX-Wi 1.02,2013-01-08 17:45:00,
2013-01-08 12:50:00,45.3,10.8,30.33,West,264,2.0,5.4,24,0.00,,,-99.99,FreeWX-Wi 1.02,2013-01-08 17:50:00,
2013-01-08 12:55:00,46.0,11.3,30.33,West,269,2.0,4.0,24,0.00,,,-99.99,FreeWX-Wi 1.02,2013-01-08 17:55:00,
2013-01-08 13:01:00,46.6,10.8,30.33,West,271,2.0,5.4,23,0.00,,,-99.99,FreeWX-Wi 1.02,2013-01-08 18:01:00,
2013-01-08 13:06:00,47.1,11.3,30.33,West,269,2.0,4.9,23,0.00,,,-99.99,FreeWX-Wi 1.02,2013-01-08 18:06:00,
2013-01-08 13:11:00,47.5,11.5,30.33,West,272,2.0,4.0,23,0.00,,,-99.99,FreeWX-Wi 1.02,2013-01-08 18:11:00,
2013-01-08 13:16:00,47.7,11.7,30.33,West,273,1.0,3.6,23,0.00,,,-99.99,FreeWX-Wi 1.02,2013-01-08 18:16:00,
2013-01-08 13:21:00,46.8,10.9,30.33,West,277,1.0,4.0,23,0.00,,,-99.99,FreeWX-Wi 1.02,2013-01-08 18:21:00,
2013-01-08 13:26:00,45.1,10.6,30.33,WNW,284,1.0,5.4,24,0.00,,,-99.99,FreeWX-Wi 1.02,2013-01-08 18:26:00,
2013-01-08 13:31:00,44.8,10.2,30.33,NW,304,1.0,5.4,24,0.00,,,-99.99,FreeWX-Wi 1.02,2013-01-08 18:31:00,
2013-01-08 13:36:00,45.0,10.4,30.33,NW,304,1.0,3.6,24,0.00,,,-99.99,FreeWX-Wi 1.02,2013-01-08 18:36:00,
2013-01-08 13:41:00,44.8,10.2,30.33,WNW,287,1.0,5.4,24,0.00,,,-99.99,FreeWX-Wi 1.02,2013-01-08 18:41:00,
2013-01-08 13:46:00,45.1,10.6,30.33,West,276,1.0,4.9,24,0.00,,,-99.99,FreeWX-Wi 1.02,2013-01-08 18:46:00,
2013-01-08 13:51:00,44.8,10.2,30.33,WNW,287,1.0,4.0,24,0.00,,,-99.99,FreeWX-Wi 1.02,2013-01-08 18:51:00,
2013-01-08 13:56:00,44.2,9.7,30.33,West,278,2.0,5.4,24,0.00,,,-99.99,FreeWX-Wi 1.02,2013-01-08 18:56:00,
2013-01-08 14:01:00,44.2,9.7,30.33,West,268,2.0,4.0,24,0.00,,,-99.99,FreeWX-Wi 1.02,2013-01-08 19:01:00,
2013-01-08 14:06:00,43.5,9.1,30.33,WSW,251,2.0,4.9,24,0.00,,,-99.99,FreeWX-Wi 1.02,2013-01-08 19:06:00,
2013-01-08 14:11:00,43.7,9.3,30.33,WSW,247,2.0,5.4,24,0.00,,,-99.99,FreeWX-Wi 1.02,2013-01-08 19:11:00,
2013-01-08 14:16:00,43.5,9.1,30.33,WSW,244,2.0,4.0,24,0.00,,,-99.99,FreeWX-Wi 1.02,2013-01-08 19:16:00,
2013-01-08 14:21:00,43.0,8.8,30.33,SSW,193,1.0,3.6,24,0.00,,,-99.99,FreeWX-Wi 1.02,2013-01-08 19:21:00,
2013-01-08 14:26:00,43.0,8.8,30.33,SSW,196,1.0,3.6,24,0.00,,,-99.99,FreeWX-Wi 1.02,2013-01-08 19:26:00,
2013-01-08 14:31:00,43.5,10.0,30.33,SSW,193,1.0,3.1,25,0.00,,,-99.99,FreeWX-Wi 1.02,2013-01-08 19:31:00,
2013-01-08 14:36:00,43.7,9.3,30.33,SSW,206,1.0,3.6,24,0.00,,,-99.99,FreeWX-Wi 1.02,2013-01-08 19:36:00,
2013-01-08 14:41:00,43.2,8.8,30.33,SSW,204,1.0,5.8,24,0.00,,,-99.99,FreeWX-Wi 1.02,2013-01-08 19:41:00,
2013-01-08 14:46:00,43.2,8.8,30.33,WSW,244,1.0,3.1,24,0.00,,,-99.99,FreeWX-Wi 1.02,2013-01-08 19:46:00,
2013-01-08 14:51:00,43.3,9.0,30.33,WNW,293,1.0,3.1,24,0.00,,,-99.99,FreeWX-Wi 1.02,2013-01-08 19:51:00,
2013-01-08 14:56:00,43.0,8.8,30.33,NW,321,1.0,3.6,24,0.00,,,-99.99,FreeWX-Wi 1.02,2013-01-08 19:56:00,
2013-01-08 15:01:00,42.8,9.5,30.33,North,-999,0.0,2.7,25,0.00,,,-99.99,FreeWX-Wi 1.02,2013-01-08 20:01:00,
2013-01-08 15:06:00,42.8,9.5,30.33,NNW,332,1.0,4.0,25,0.00,,,-99.99,FreeWX-Wi 1.02,2013-01-08 20:06:00,
2013-01-08 15:11:00,42.4,10.0,30.33,North,-999,0.0,5.4,26,0.00,,,-99.99,FreeWX-Wi 1.02,2013-01-08 20:11:00,
2013-01-08 15:16:00,42.3,9.9,30.33,North,-999,0.0,3.6,26,0.00,,,-99.99,FreeWX-Wi 1.02,2013-01-08 20:16:00,
2013-01-08 15:21:00,42.1,9.7,30.33,North,-999,0.0,4.0,26,0.00,,,-99.99,FreeWX-Wi 1.02,2013-01-08 20:21:00,
2013-01-08 15:26:00,41.5,9.3,30.33,North,-999,0.0,0.0,26,0.00,,,-99.99,FreeWX-Wi 1.02,2013-01-08 20:26:00,
2013-01-08 15:31:00,41.5,9.3,30.33,North,-999,0.0,4.0,26,0.00,,,-99.99,FreeWX-Wi 1.02,2013-01-08 20:31:00,
2013-01-08 15:36:00,41.7,9.3,30.33,North,-999,0.0,3.1,26,0.00,,,-99.99,FreeWX-Wi 1.02,2013-01-08 20:36:00,
2013-01-08 15:41:00,41.2,9.0,30.33,North,-999,0.0,4.0,26,0.00,,,-99.99,FreeWX-Wi 1.02,2013-01-08 20:41:00,
2013-01-08 15:46:00,41.2,9.0,30.33,North,-999,0.0,3.1,26,0.00,,,-99.99,FreeWX-Wi 1.02,2013-01-08 20:46:00,
2013-01-08 15:51:00,40.8,8.6,30.33,North,-999,0.0,4.9,26,0.00,,,-99.99,FreeWX-Wi 1.02,2013-01-08 20:51:00,
2013-01-08 15:56:00,40.5,8.2,30.33,North,-999,0.0,3.6,26,0.00,,,-99.99,FreeWX-Wi 1.02,2013-01-08 20:56:00,
2013-01-08 16:01:00,40.5,10.0,30.33,North,-999,0.0,3.1,28,0.00,,,-99.99,FreeWX-Wi 1.02,2013-01-08 21:01:00,
2013-01-08 16:06:00,40.3,9.9,30.33,North,-999,0.0,0.0,28,0.00,,,-99.99,FreeWX-Wi 1.02,2013-01-08 21:06:00,
2013-01-08 16:11:00,39.9,9.5,30.33,North,-999,0.0,0.0,28,0.00,,,-99.99,FreeWX-Wi 1.02,2013-01-08 21:11:00,
2013-01-08 16:16:00,39.6,9.1,30.33,North,-999,0.0,0.0,28,0.00,,,-99.99,FreeWX-Wi 1.02,2013-01-08 21:16:00,
2013-01-08 16:21:00,39.7,9.3,30.33,North,-999,0.0,0.0,28,0.00,,,-99.99,FreeWX-Wi 1.02,2013-01-08 21:21:00,
2013-01-08 16:26:00,39.6,11.5,30.33,North,-999,0.0,4.0,31,0.00,,,-99.99,FreeWX-Wi 1.02,2013-01-08 21:26:00,
2013-01-08 16:31:00,39.2,11.1,30.33,North,-999,0.0,0.0,31,0.00,,,-99.99,FreeWX-Wi 1.02,2013-01-08 21:31:00,
2013-01-08 16:36:00,38.5,10.6,30.33,North,-999,0.0,2.7,31,0.00,,,-99.99,FreeWX-Wi 1.02,2013-01-08 21:36:00,
2013-01-08 16:41:00,37.9,12.0,30.33,North,-999,0.0,0.0,34,0.00,,,-99.99,FreeWX-Wi 1.02,2013-01-08 21:41:00,
2013-01-08 16:46:00,37.8,12.0,30.33,North,-999,0.0,0.0,34,0.00,,,-99.99,FreeWX-Wi 1.02,2013-01-08 21:46:00,
2013-01-08 16:51:00,37.4,14.7,30.33,North,-999,0.0,0.0,39,0.00,,,-99.99,FreeWX-Wi 1.02,2013-01-08 21:51:00,
2013-01-08 16:56:00,37.4,15.8,30.33,North,-999,0.0,0.0,41,0.00,,,-99.99,FreeWX-Wi 1.02,2013-01-08 21:56:00,
2013-01-08 17:01:00,37.0,16.2,30.33,North,-999,0.0,0.0,42,0.00,,,-99.99,FreeWX-Wi 1.02,2013-01-08 22:01:00,
2013-01-08 17:06:00,37.0,16.2,30.33,North,-999,0.0,0.0,42,0.00,,,-99.99,FreeWX-Wi 1.02,2013-01-08 22:06:00,
2013-01-08 17:11:00,36.9,17.1,30.33,North,-999,0.0,0.0,44,0.00,,,-99.99,FreeWX-Wi 1.02,2013-01-08 22:11:00,
2013-01-08 17:16:00,37.0,17.8,30.33,North,-999,0.0,0.0,45,0.00,,,-99.99,FreeWX-Wi 1.02,2013-01-08 22:16:00,
2013-01-08 17:21:00,37.0,17.8,30.33,North,-999,0.0,0.0,45,0.00,,,-99.99,FreeWX-Wi 1.02,2013-01-08 22:21:00,
2013-01-08 17:26:00,36.9,17.6,30.33,North,-999,0.0,0.0,45,0.00,,,-99.99,FreeWX-Wi 1.02,2013-01-08 22:26:00,
2013-01-08 17:31:00,37.0,17.8,30.33,North,-999,0.0,0.0,45,0.00,,,-99.99,FreeWX-Wi 1.02,2013-01-08 22:31:00,
2013-01-08 17:36:00,37.0,17.8,30.33,North,-999,0.0,0.0,45,0.00,,,-99.99,FreeWX-Wi 1.02,2013-01-08 22:36:00,
2013-01-08 17:41:00,37.0,17.8,30.33,North,-999,0.0,0.0,45,0.00,,,-99.99,FreeWX-Wi 1.02,2013-01-08 22:41:00,
2013-01-08 17:46:00,36.9,17.6,30.33,North,-999,0.0,0.0,45,0.00,,,-99.99,FreeWX-Wi 1.02,2013-01-08 22:46:00,
2013-01-08 17:51:00,37.0,17.8,30.36,North,-999,0.0,0.0,45,0.00,,,-99.99,FreeWX-Wi 1.02,2013-01-08 22:51:00,
2013-01-08 17:56:00,37.2,17.8,30.36,North,-999,0.0,0.0,45,0.00,,,-99.99,FreeWX-Wi 1.02,2013-01-08 22:56:00,
2013-01-08 18:01:00,37.0,18.1,30.36,North,-999,0.0,0.0,46,0.00,,,-99.99,FreeWX-Wi 1.02,2013-01-08 23:01:00,
2013-01-08 18:06:00,36.9,18.0,30.36,North,-999,0.0,0.0,46,0.00,,,-99.99,FreeWX-Wi 1.02,2013-01-08 23:06:00,
2013-01-08 18:11:00,36.9,18.0,30.36,North,-999,0.0,0.0,46,0.00,,,-99.99,FreeWX-Wi 1.02,2013-01-08 23:11:00,
2013-01-08 18:16:00,36.7,18.3,30.36,North,-999,0.0,0.0,47,0.00,,,-99.99,FreeWX-Wi 1.02,2013-01-08 23:16:00,
2013-01-08 18:21:00,36.3,18.0,30.36,North,-999,0.0,0.0,47,0.00,,,-99.99,FreeWX-Wi 1.02,2013-01-08 23:21:00,
2013-01-08 18:26:00,36.1,18.3,30.36,North,-999,0.0,0.0,48,0.00,,,-99.99,FreeWX-Wi 1.02,2013-01-08 23:26:00,
2013-01-08 18:33:00,36.0,17.8,30.36,North,-999,0.0,0.0,47,0.00,,,-99.99,FreeWX-Wi 1.02,2013-01-08 23:33:00,
2013-01-08 18:38:00,36.1,18.9,30.36,North,-999,0.0,0.0,49,0.00,,,-99.99,FreeWX-Wi 1.02,2013-01-08 23:38:00,
2013-01-08 18:43:00,36.5,19.6,30.36,North,-999,0.0,0.0,50,0.00,,,-99.99,FreeWX-Wi 1.02,2013-01-08 23:43:00,
2013-01-08 18:48:00,36.7,19.8,30.36,North,-999,0.0,0.0,50,0.00,,,-99.99,FreeWX-Wi 1.02,2013-01-08 23:48:00,
2013-01-08 18:53:00,36.7,19.8,30.36,North,-999,0.0,0.0,50,0.00,,,-99.99,FreeWX-Wi 1.02,2013-01-08 23:53:00,
2013-01-08 18:58:00,36.3,19.4,30.36,North,-999,0.0,0.0,50,0.00,,,-99.99,FreeWX-Wi 1.02,2013-01-08 23:58:00,
2013-01-08 19:03:00,36.3,19.4,30.36,North,-999,0.0,0.0,50,0.00,,,-99.99,FreeWX-Wi 1.02,2013-01-09 00:03:00,
2013-01-08 19:08:00,36.1,19.4,30.36,North,-999,0.0,0.0,50,0.00,,,-99.99,FreeWX-Wi 1.02,2013-01-09 00:08:00,
2013-01-08 19:13:00,36.0,19.6,30.36,North,-999,0.0,0.0,51,0.00,,,-99.99,FreeWX-Wi 1.02,2013-01-09 00:13:00,
2013-01-08 19:18:00,36.0,20.5,30.36,North,-999,0.0,0.0,53,0.00,,,-99.99,FreeWX-Wi 1.02,2013-01-09 00:18:00,
2013-01-08 19:23:00,35.6,20.1,30.36,North,-999,0.0,0.0,53,0.00,,,-99.99,FreeWX-Wi 1.02,2013-01-09 00:23:00,
2013-01-08 19:28:00,35.2,20.3,30.36,North,-999,0.0,0.0,54,0.00,,,-99.99,FreeWX-Wi 1.02,2013-01-09 00:28:00,
2013-01-08 19:33:00,34.9,20.8,30.36,North,-999,0.0,0.0,56,0.00,,,-99.99,FreeWX-Wi 1.02,2013-01-09 00:33:00,
2013-01-08 19:38:00,34.9,20.8,30.36,North,-999,0.0,0.0,56,0.00,,,-99.99,FreeWX-Wi 1.02,2013-01-09 00:38:00,
2013-01-08 19:43:00,35.1,21.4,30.36,North,-999,0.0,0.0,57,0.00,,,-99.99,FreeWX-Wi 1.02,2013-01-09 00:43:00,
2013-01-08 19:48:00,35.1,21.4,30.36,North,-999,0.0,0.0,57,0.00,,,-99.99,FreeWX-Wi 1.02,2013-01-09 00:48:00,
2013-01-08 19:53:00,34.7,21.0,30.36,North,-999,0.0,0.0,57,0.00,,,-99.99,FreeWX-Wi 1.02,2013-01-09 00:53:00,
2013-01-08 19:58:00,34.3,20.7,30.36,North,-999,0.0,0.0,57,0.00,,,-99.99,FreeWX-Wi 1.02,2013-01-09 00:58:00,
2013-01-08 20:03:00,34.0,20.8,30.36,North,-999,0.0,0.0,58,0.00,,,-99.99,FreeWX-Wi 1.02,2013-01-09 01:03:00,
2013-01-08 20:08:00,33.8,20.7,30.36,North,-999,0.0,0.0,58,0.00,,,-99.99,FreeWX-Wi 1.02,2013-01-09 01:08:00,
2013-01-08 20:13:00,33.6,21.6,30.36,North,-999,0.0,0.0,61,0.00,,,-99.99,FreeWX-Wi 1.02,2013-01-09 01:13:00,
2013-01-08 20:18:00,33.6,21.9,30.36,North,-999,0.0,0.0,62,0.00,,,-99.99,FreeWX-Wi 1.02,2013-01-09 01:18:00,
2013-01-08 20:23:00,33.6,23.2,30.36,North,-999,0.0,0.0,65,0.00,,,-99.99,FreeWX-Wi 1.02,2013-01-09 01:23:00,
2013-01-08 20:28:00,34.0,25.0,30.36,North,-999,0.0,0.0,69,0.00,,,-99.99,FreeWX-Wi 1.02,2013-01-09 01:28:00,
2013-01-08 20:33:00,34.0,24.3,30.36,North,-999,0.0,0.0,67,0.00,,,-99.99,FreeWX-Wi 1.02,2013-01-09 01:33:00,
2013-01-08 20:38:00,33.4,23.7,30.36,North,-999,0.0,0.0,67,0.00,,,-99.99,FreeWX-Wi 1.02,2013-01-09 01:38:00,
2013-01-08 20:43:00,32.9,23.5,30.36,North,-999,0.0,0.0,68,0.00,,,-99.99,FreeWX-Wi 1.02,2013-01-09 01:43:00,
2013-01-08 20:48:00,32.5,23.2,30.36,North,-999,0.0,0.0,68,0.00,,,-99.99,FreeWX-Wi 1.02,2013-01-09 01:48:00,
2013-01-08 20:53:00,32.5,23.5,30.36,North,-999,0.0,0.0,69,0.00,,,-99.99,FreeWX-Wi 1.02,2013-01-09 01:53:00,
2013-01-08 20:58:00,32.7,24.4,30.36,North,-999,0.0,0.0,71,0.00,,,-99.99,FreeWX-Wi 1.02,2013-01-09 01:58:00,
2013-01-08 21:03:00,33.4,26.4,30.36,North,-999,0.0,0.0,75,0.00,,,-99.99,FreeWX-Wi 1.02,2013-01-09 02:03:00,
2013-01-08 21:08:00,33.4,25.7,30.36,North,-999,0.0,0.0,73,0.00,,,-99.99,FreeWX-Wi 1.02,2013-01-09 02:08:00,
2013-01-08 21:13:00,32.7,24.6,30.36,North,-999,0.0,0.0,72,0.00,,,-99.99,FreeWX-Wi 1.02,2013-01-09 02:13:00,
2013-01-08 21:18:00,32.2,24.3,30.36,North,-999,0.0,0.0,72,0.00,,,-99.99,FreeWX-Wi 1.02,2013-01-09 02:18:00,
2013-01-08 21:23:00,32.2,24.4,30.36,North,-999,0.0,0.0,73,0.00,,,-99.99,FreeWX-Wi 1.02,2013-01-09 02:23:00,
2013-01-08 21:28:00,32.2,25.2,30.36,North,-999,0.0,0.0,75,0.00,,,-99.99,FreeWX-Wi 1.02,2013-01-09 02:28:00,
2013-01-08 21:33:00,32.5,26.4,30.36,North,-999,0.0,0.0,78,0.00,,,-99.99,FreeWX-Wi 1.02,2013-01-09 02:33:00,
2013-01-08 21:38:00,33.4,28.6,30.36,North,-999,0.0,0.0,82,0.00,,,-99.99,FreeWX-Wi 1.02,2013-01-09 02:38:00,
2013-01-08 21:43:00,34.0,30.6,30.36,North,-999,0.0,0.0,87,0.00,,,-99.99,FreeWX-Wi 1.02,2013-01-09 02:43:00,
2013-01-08 21:48:00,34.3,31.1,30.36,North,-999,0.0,0.0,88,0.00,,,-99.99,FreeWX-Wi 1.02,2013-01-09 02:48:00,
2013-01-08 21:53:00,33.6,29.3,30.36,North,-999,0.0,0.0,84,0.00,,,-99.99,FreeWX-Wi 1.02,2013-01-09 02:53:00,
2013-01-08 21:58:00,32.5,26.8,30.36,North,-999,0.0,0.0,79,0.00,,,-99.99,FreeWX-Wi 1.02,2013-01-09 02:58:00,
2013-01-08 22:03:00,31.8,26.1,30.36,North,-999,0.0,0.0,79,0.00,,,-99.99,FreeWX-Wi 1.02,2013-01-09 03:03:00,
2013-01-08 22:08:00,32.0,26.8,30.36,North,-999,0.0,0.0,81,0.00,,,-99.99,FreeWX-Wi 1.02,2013-01-09 03:08:00,
2013-01-08 22:13:00,31.8,26.6,30.36,North,-999,0.0,0.0,81,0.00,,,-99.99,FreeWX-Wi 1.02,2013-01-09 03:13:00,
2013-01-08 22:18:00,31.8,26.4,30.39,North,-999,0.0,0.0,80,0.00,,,-99.99,FreeWX-Wi 1.02,2013-01-09 03:18:00,
2013-01-08 22:23:00,31.5,26.1,30.39,North,-999,0.0,0.0,80,0.00,,,-99.99,FreeWX-Wi 1.02,2013-01-09 03:23:00,
2013-01-08 22:29:00,31.1,25.7,30.39,North,-999,0.0,0.0,80,0.00,,,-99.99,FreeWX-Wi 1.02,2013-01-09 03:29:00,
2013-01-08 22:34:00,31.1,25.7,30.39,North,-999,0.0,0.0,80,0.00,,,-99.99,FreeWX-Wi 1.02,2013-01-09 03:34:00,
2013-01-08 22:39:00,31.1,25.9,30.39,North,-999,0.0,0.0,81,0.00,,,-99.99,FreeWX-Wi 1.02,2013-01-09 03:39:00,
2013-01-08 22:44:00,31.3,26.1,30.39,North,-999,0.0,0.0,81,0.00,,,-99.99,FreeWX-Wi 1.02,2013-01-09 03:44:00,
2013-01-08 22:49:00,30.6,25.2,30.39,North,-999,0.0,0.0,80,0.00,,,-99.99,FreeWX-Wi 1.02,2013-01-09 03:49:00,
2013-01-08 22:54:00,30.4,25.0,30.39,North,-999,0.0,0.0,80,0.00,,,-99.99,FreeWX-Wi 1.02,2013-01-09 03:54:00,
2013-01-08 22:59:00,30.4,25.3,30.39,North,-999,0.0,0.0,81,0.00,,,-99.99,FreeWX-Wi 1.02,2013-01-09 03:59:00,
2013-01-08 23:04:00,30.6,25.7,30.39,North,-999,0.0,0.0,82,0.00,,,-99.99,FreeWX-Wi 1.02,2013-01-09 04:04:00,
2013-01-08 23:09:00,30.0,25.0,30.39,North,-999,0.0,0.0,81,0.00,,,-99.99,FreeWX-Wi 1.02,2013-01-09 04:09:00,
2013-01-08 23:14:00,29.5,24.4,30.39,North,-999,0.0,0.0,81,0.00,,,-99.99,FreeWX-Wi 1.02,2013-01-09 04:14:00,
2013-01-08 23:19:00,29.1,24.1,30.39,North,-999,0.0,0.0,81,0.00,,,-99.99,FreeWX-Wi 1.02,2013-01-09 04:19:00,
2013-01-08 23:24:00,28.9,24.1,30.39,North,-999,0.0,0.0,82,0.00,,,-99.99,FreeWX-Wi 1.02,2013-01-09 04:24:00,
2013-01-08 23:29:00,29.1,24.6,30.39,North,-999,0.0,0.0,83,0.00,,,-99.99,FreeWX-Wi 1.02,2013-01-09 04:29:00,
2013-01-08 23:34:00,29.1,25.0,30.36,North,-999,0.0,0.0,84,0.00,,,-99.99,FreeWX-Wi 1.02,2013-01-09 04:34:00,
2013-01-08 23:39:00,28.9,24.4,30.36,North,-999,0.0,0.0,83,0.00,,,-99.99,FreeWX-Wi 1.02,2013-01-09 04:39:00,
2013-01-08 23:44:00,29.3,25.2,30.36,North,-999,0.0,0.0,84,0.00,,,-99.99,FreeWX-Wi 1.02,2013-01-09 04:44:00,
2013-01-08 23:49:00,29.8,26.2,30.36,North,-999,0.0,0.0,86,0.00,,,-99.99,FreeWX-Wi 1.02,2013-01-09 04:49:00,
2013-01-08 23:54:00,29.5,25.9,30.36,North,-999,0.0,0.0,86,0.00,,,-99.99,FreeWX-Wi 1.02,2013-01-09 04:54:00,
2013-01-08 23:59:00,28.8,24.6,30.36,North,-999,0.0,0.0,84,0.00,,,-99.99,FreeWX-Wi 1.02,2013-01-09 04:59:00,